Weather in Klevan

Ukraine / Rovno District     50˚44′45″N   26˚00′47″E
temp.,
°C
wind,
m/s
gust,
m/s
humid.,
%
clouds,
%
prec.,
mm/h
press.,
hPa
HPBL,
m
29 november, sun
sun2923:00nnw3596100 0.7 1018342
02:00−1˚nw359693 0.9 1018273
05:00−3˚wnw249679 0.0 1018163
08:00−2˚w239689 0.1 1019110
11:00w248494 0.0 1020454
14:00+1˚w237690 0.1 1020663
17:00−1˚sw2391100 0.1 1020115
20:00−1˚wsw2497100 0.2 1021186
30 november, mon
mon3023:00−2˚wsw239547 0.0 102271
02:00−3˚wsw359632 0.0 1023135
05:00−3˚wsw249733 0.0 1023109
08:00−3˚wsw249752 0.1 1025149
11:00−1˚w348750 0.0 1026391
14:00w347773 0.1 1026666
17:00−1˚w357998 0.0 1027368
20:00−1˚w248099 0.1 1028437
1 december, tue
tue123:00−1˚wsw2376100 0.0 1028282
02:00−1˚sw2375100 0.1 1028236
05:00−1˚ssw1173100 0.0 102878
08:00−3˚sse238471 0.0 102960
11:00−1˚sse35720 0.0 1029539
14:00se34700 0.0 1028605
17:00−3˚ese35820 0.0 1028106
20:00−3˚ese37820 0.0 1029166
2 december, wed
wed223:00−4˚ese36870 0.0 1029190
02:00−4˚e34890 0.0 1029109
05:00−4˚ene35920 0.0 1028147
08:00−4˚ene369614 0.0 1028154
11:00−1˚e359043 0.0 1028277
14:00e359067 0.0 1026340
17:00−1˚ene2598100 0.0 1026219
20:00−1˚e3697100 0.1 1026277
3 december, thu
thu323:00−2˚ese359790 0.1 1025130
02:00−3˚ese239765 0.1 102572
05:00−1˚ese359295 0.0 1024183
08:00−1˚se368997 0.0 1024263
11:00se468797 0.0 1023437
14:00sse478198 0.0 1022585
17:00se4885100 0.0 1021495
20:00sse598299 0.0 1020643